Regional Weather Roundup
Issued by NWS Little Rock, AR

Home | Current Version | Previous Version | Text Only | Print | Product List | Glossary On
Versions: 1 2 3 4 5 6 7 8 9 10 11 12 13 14 15 16 17 18 19 20 21 22 23 24 25 26 27 28 29 30 31
000
ASUS44 KLZK 071605
RWRLZK

WEATHER ROUNDUP FOR ARKANSAS
NATIONAL WEATHER SERVICE LITTLE ROCK AR
1000 AM CST WED DEC 07 2016

NOTE: "FAIR" INDICATES FEW OR NO CLOUDS BELOW 12,000 FEET WITH NO
SIGNIFICANT WEATHER AND/OR OBSTRUCTIONS TO VISIBILITY.

ARZ001-003-010-029-071700-
NORTHWEST ARKANSAS

CITY           SKY/WX    TMP DP  RH WIND       PRES   REMARKS
FAYETTEVILLE   CLOUDY    34  18  52 E7        30.17R WCI  28
FORT SMITH     CLOUDY    40  24  53 E10       30.19R
HARRISON       CLOUDY    32  19  58 E12       30.21S WCI  23
BENTONVILLE    CLOUDY    36  12  38 E15       30.20R
ROGERS         CLOUDY    34  15  46 E12       30.19R WCI  25
SILOAM SPGS    CLOUDY    36  16  44 E8        30.18R
HIGHFILL       CLOUDY    35  16  45 E10       30.18R WCI  27
SPRINGDALE     CLOUDY    34  16  47 E13G18    30.19R WCI  25
$$

ARZ004-005-016-071700-
NORTH CENTRAL ARKANSAS

CITY           SKY/WX    TMP DP  RH WIND       PRES   REMARKS
BATESVILLE     CLOUDY    37  19  48 NE6       30.25R
FLIPPIN        CLOUDY    36  18  48 E5        30.21F
MTN HOME       CLOUDY    33  19  56 SE6       30.23R WCI  28
$$

ARZ040-041-071700-
WEST CENTRAL ARKANSAS

CITY           SKY/WX    TMP DP  RH WIND       PRES   REMARKS
MENA           CLOUDY    43  37  81 E8        30.15R
MOUNT IDA      CLOUDY    42  33  70 VRB5      30.14R
$$

ARZ009-017-025-026-028-071700-
NORTHEAST ARKANSAS

CITY           SKY/WX    TMP DP  RH WIND       PRES   REMARKS
CORNING        CLOUDY    39  25  56 NE13      30.25F
JONESBORO      CLOUDY    39  26  59 NE15      30.23F
WALNUT RIDGE   CLOUDY    39  21  48 NE12      30.24S
BLYTHEVILLE    CLOUDY    41  28  60 NE14      30.24S
NW BLYTHEVILLE PTSUNNY   39  28  65 NE12G22   30.24R
$$

ARZ022-023-033-042-044-071700-
CENTRAL ARKANSAS

CITY           SKY/WX    TMP DP  RH WIND       PRES   REMARKS
LITTLE ROCK    CLOUDY    39  32  76 E13       30.23R
N LITTLE ROCK    N/A     39  31  72 E10       30.23S
JACKSONVILLE   PTSUNNY   40  29  64 NE12      30.22R
SEARCY         CLOUDY    39  26  59 NE12      30.25S
HOT SPRINGS    CLOUDY    42  32  67 NE12      30.19R
RUSSELLVILLE   CLOUDY    39  22  50 E7        30.21R
CLINTON        CLOUDY    37  19  48 VRB5      30.24R
$$

ARZ036-071700-
EAST ARKANSAS

CITY           SKY/WX    TMP DP  RH WIND       PRES   REMARKS
WEST MEMPHIS   CLOUDY    41  35  79 NE12      30.22R
$$

ARZ050-053-066-070-073-071700-
SOUTHWEST ARKANSAS

CITY           SKY/WX    TMP DP  RH WIND       PRES   REMARKS
ARKADELPHIA    CLOUDY    43  37  79 E9        30.20R
CAMDEN         MIX PCPN  45  37  76 NE3       30.18R
TEXARKANA      CLOUDY    45  40  82 VRB7      30.15R
EL DORADO      CLOUDY    46  43  89 NE9       30.17R
DE QUEEN       CLOUDY    45  39  79 E9        30.15R
$$

ARZ056-057-069-071700-
SOUTHEAST ARKANSAS

CITY           SKY/WX    TMP DP  RH WIND       PRES   REMARKS
PINE BLUFF     CLOUDY    42  37  82 NE12      30.21R
STUTTGART      CLOUDY    41  32  70 N12       30.22R
MONTICELLO     CLOUDY    46  41  82 NE9       30.18R

$$






USA.gov is the U.S. government's official web portal to all federal, state and local government web resources and services.